Location: Los Angeles
(34.0542°N, 118.2411°W)
Time: 20:17:19
(UTC-08:00)

Daily predictions for brighter satellites

Satellite Brightness Start Highest point End
(mag) Time Altitude Azimuth Time Altitude Azimuth Time Altitude Azimuth
NOAA 12 4.2 17:59:44 10° SSE 18:04:53 55° ENE 18:10:05 10° N
FALCON 9 R/B 3.7 17:59:20 10° W 18:05:00 87° N 18:27:49 10° E
USA 215 4.0 17:59:12 10° ENE 18:05:04 35° SE 18:10:54 10° S
EO 1 Del DPAF 3.5 18:05:22 10° NNE 18:09:05 48° E 18:12:46 10° S
Cosmos 1437 Rocket 3.9 18:06:16 10° SE 18:09:33 24° E 18:12:53 10° NE
Okean 3 3.7 18:05:46 10° N 18:09:47 44° E 18:13:46 10° SSE
Meteor 1-25 Rocket 4.2 18:04:57 10° S 18:10:22 60° E 18:15:50 10° NNE
GPS 2-05 Rocket1 3.9 18:08:30 10° SW 18:11:18 28° SSE 18:14:04 10° E
Cosmos 1980 4.4 18:05:50 10° NNW 18:11:26 61° WSW 18:16:59 10° S
Cosmos 1464 Rocket 4.3 18:07:57 10° N 18:13:47 44° E 18:19:35 10° SSE
Landsat 4 3.6 18:10:18 10° NNE 18:14:03 76° ESE 18:17:48 10° S
Cosmos 1269 Rocket 4.3 18:13:27 10° S 18:18:30 48° ESE 18:23:33 10° NNE
Cosmos 1674 Rocket 3.4 18:15:16 10° N 18:19:36 77° E 18:23:54 10° S
USA 32 4.4 18:15:47 10° SSE 18:20:38 40° E 18:25:30 10° NNE
Cosmos 921 Rocket 4.0 18:18:08 10° N 18:22:00 27° ENE 18:25:48 10° SE
Lacrosse 5 3.5 18:18:13 10° NW 18:22:52 37° WSW 18:27:28 10° S
Cosmos 1908 Rocket 3.5 18:20:52 10° S 18:25:18 73° E 18:29:46 10° N
YAOGAN 1 4.0 18:23:01 10° S 18:27:08 43° W 18:31:16 10° NNW
CENTAUR R/B 3.0 18:24:40 10° SW 18:30:26 60° NW 18:37:01 10° NNE
Gbstr 26 Del rocket 2.5 18:26:43 10° SW 18:30:27 78° SE 18:34:08 11° NE
Cosmos 1633 2.9 18:28:56 10° SSW 18:32:28 67° W 18:36:01 10° N
FENGYUN 3A 4.5 18:34:51 10° S 18:40:07 55° W 18:45:26 10° NNW
FengYun 1-2 T 4.2 18:35:58 10° SSE 18:41:24 63° ENE 18:46:49 10° N
FREGAT/IRIS 2.5 18:43:17 10° SSE 18:46:11 57° ENE 18:49:06 10° N
Iridium 4 Rocket 3.0 18:43:06 10° N 18:47:48 78° E 18:52:06 10° S
COSMOS 2455 3.2 18:43:12 10° S 18:48:46 41° ESE 18:54:22 10° NE
Tiangong 2 2.0 18:45:58 10° WNW 18:49:02 45° SW 18:51:15 16° SE
Alouette 2 Rocket 4.0 18:47:04 10° SSE 18:50:16 27° E 18:50:49 26° ENE
OAO 2 Rocket 3.2 18:45:30 10° W 18:50:28 81° N 18:53:25 24° E
Cosmos 1891 Rocket 4.4 18:44:34 10° N 18:50:45 81° E 18:56:49 10° S
Cosmos 2034 Rocket 4.0 18:44:24 10° N 18:50:46 67° E 18:57:03 10° SSE
ERS-2 2.0 18:47:10 10° SSE 18:50:49 66° ENE 18:54:28 10° N
H-2A R/B 3.0 18:49:02 10° S 18:52:56 72° W 18:56:50 10° NNW
Cosmos 1975 Rocket 3.2 18:51:40 10° N 18:56:01 53° E 19:00:23 10° SSE
SJ-6B 2.9 18:54:30 10° SSE 18:58:06 48° ENE 19:01:49 10° N
Cosmos 1452 Rocket 4.5 18:54:05 10° NNW 18:59:09 49° WSW 19:04:11 10° S
Cosmos 1816 Rocket 4.5 18:53:43 10° S 18:59:59 66° E 19:06:17 10° NNE
SL-16 R/B 2.6 18:55:15 10° NNW 19:00:51 64° WSW 19:06:25 10° S
Cosmos 2251 Rocket 4.0 19:00:21 10° SSE 19:05:03 35° E 19:06:38 28° ENE
Resurs 01 Rocket 3.1 19:07:01 21° NE 19:07:01 21° NE 19:09:09 10° NNE
Cosmos 44 Rocket 4.0 19:03:26 10° NW 19:08:26 59° WSW 19:13:29 10° SSE
CZ-2D R/B 3.1 19:12:45 23° SSE 19:15:04 69° ENE 19:18:57 10° N
Okean 1 4.2 19:13:35 10° NNW 19:17:27 50° W 19:21:17 10° S
Cosmos 1603 3.7 19:14:10 10° NNW 19:19:43 56° ENE 19:21:46 36° SE
ARGOS Delta rocket 3.8 19:18:42 10° N 19:23:27 79° WNW 19:27:57 10° SSW
Meteor 1-13 Rocket 4.0 19:18:01 10° N 19:23:31 68° E 19:29:00 10° SSE
SeaSat 1 2.5 19:27:10 52° ENE 19:27:29 53° ENE 19:32:17 10° NNW
CZ-4C R/B 3.7 19:22:21 10° N 19:28:37 30° NE 19:29:06 30° NE
Cosmos 2263 Rocket 2.0 19:25:04 10° S 19:30:33 67° ESE 19:32:57 34° NE
BREEZE-M R/B 4.4 19:34:04 10° NW 19:37:25 63° NE 19:39:13 46° E
Meteor 1-4 Rocket 3.9 19:36:32 10° SSW 19:39:48 38° W 19:42:46 12° NNW
Envisat 3.2 19:38:04 10° S 19:43:07 71° WSW 19:48:11 10° NNW
USA 215 3.8 19:43:23 18° NNE 19:48:09 55° NW 19:54:29 10° WSW
Lacrosse 5 rocket 3.9 19:45:50 10° SSW 19:45:53 10° SSW 19:45:53 10° SSW
Sakura Rocket 4.4 19:48:49 10° WSW 19:54:30 54° S 19:55:18 51° SSE
Meteor 1-5 Rocket 4.4 19:50:49 10° SSW 19:56:40 76° W 20:02:39 10° N
Meteor 2-4 Rocket 3.9 19:52:42 10° NNW 19:58:24 70° W 20:00:34 38° SSW
USA 267 4.5 20:20:15 29° N 20:20:15 29° N 20:24:19 10° NNW
Cosmos 1943 4.2 20:19:28 10° NNW 20:23:05 40° NW 20:23:05 40° NW
Resurs 01 Rocket 4.5 20:44:35 14° NW 20:44:35 14° NW 20:45:24 10° NW
CZ-4C R/B 4.1 21:10:13 10° NW 21:14:20 36° NW 21:14:20 36° NW
CZ-3C R/B 4.4 21:28:45 10° WSW 22:18:38 15° ESE 22:33:26 10° ESE
